| time (UTC) | temp F | wind direction | speed knots | gust knots | rain 1hr in | rain 24hr in | rain mn in | humidity % | barometer mb |
| 20260906234257 | 79 | 182 | 0.9 | 0.0 | 0.00 | 0.00 | 0.00 | 31 | 1012.8 |
| 20260906233751 | 79 | 169 | 1.7 | 0.0 | 0.00 | 0.00 | 0.00 | 28 | 1012.7 |
| 20260906233245 | 79 | 179 | 0.9 | 0.0 | 0.00 | 0.00 | 0.00 | 28 | 1012.7 |
| 20260906232739 | 79 | 184 | 2.6 | 0.0 | 0.00 | 0.00 | 0.00 | 26 | 1012.8 |
| 20260906232233 | 79 | 195 | 0.9 | 0.0 | 0.00 | 0.00 | 0.00 | 30 | 1012.9 |
| 20260906231727 | 79 | 198 | 1.7 | 0.0 | 0.00 | 0.00 | 0.00 | 28 | 1012.9 |
| 20260906231221 | 79 | 212 | 1.7 | 0.0 | 0.00 | 0.00 | 0.00 | 26 | 1013.0 |
| 20260906230715 | 79 | 197 | 1.7 | 0.0 | 0.00 | 0.00 | 0.00 | 27 | 1013.1 |
| 20260906230209 | 80 | 198 | 3.5 | 0.0 | 0.00 | 0.00 | 0.00 | 25 | 1013.0 |
| 20260906225703 | 79 | 207 | 0.9 | 0.0 | 0.00 | 0.00 | 0.00 | 27 | 1013.1 |
| 20260906225157 | 79 | 224 | 2.6 | 0.0 | 0.00 | 0.00 | 0.00 | 26 | 1013.1 |
| 20260906224651 | 79 | 214 | 3.5 | 0.0 | 0.00 | 0.00 | 0.00 | 26 | 1013.2 |
| 20260906224145 | 79 | 211 | 4.3 | 9.6 | 0.00 | 0.00 | 0.00 | 26 | 1013.1 |
| 20260906223639 | 79 | 210 | 2.6 | 9.6 | 0.00 | 0.00 | 0.00 | 27 | 1013.2 |
| 20260906223133 | 80 | 220 | 4.3 | 9.6 | 0.00 | 0.00 | 0.00 | 25 | 1013.1 |
| 20260906222627 | 80 | 212 | 3.5 | 0.0 | 0.00 | 0.00 | 0.00 | 26 | 1013.1 |
| 20260906222121 | 80 | 218 | 3.5 | 12.2 | 0.00 | 0.00 | 0.00 | 25 | 1013.1 |
| 20260906221615 | 81 | 215 | 5.2 | 12.2 | 0.00 | 0.00 | 0.00 | 25 | 1013.2 |
| 20260906221109 | 81 | 210 | 3.5 | 11.3 | 0.00 | 0.00 | 0.00 | 26 | 1013.2 |
| 20260906220603 | 81 | 203 | 4.3 | 11.3 | 0.00 | 0.00 | 0.00 | 25 | 1013.3 |
| 20260906220057 | 81 | 209 | 5.2 | 11.3 | 0.00 | 0.00 | 0.00 | 24 | 1013.1 |
| 20260906215551 | 81 | 205 | 6.1 | 11.3 | 0.00 | 0.00 | 0.00 | 24 | 1013.2 |
| 20260906215045 | 81 | 211 | 4.3 | 12.2 | 0.00 | 0.00 | 0.00 | 25 | 1013.2 |
| 20260906214539 | 81 | 218 | 5.2 | 12.2 | 0.00 | 0.00 | 0.00 | 25 | 1013.1 |
| 20260906214033 | 83 | 225 | 3.5 | 12.2 | 0.00 | 0.00 | 0.00 | 25 | 1013.0 |
| 20260906213527 | 83 | 228 | 4.3 | 12.2 | 0.00 | 0.00 | 0.00 | 24 | 1013.1 |
| 20260906213021 | 82 | 222 | 5.2 | 12.2 | 0.00 | 0.00 | 0.00 | 24 | 1013.2 |
| 20260906212515 | 81 | 209 | 5.2 | 12.2 | 0.00 | 0.00 | 0.00 | 26 | 1013.3 |
| 20260906212009 | 81 | 212 | 7.0 | 11.3 | 0.00 | 0.00 | 0.00 | 25 | 1013.3 |
| 20260906211503 | 81 | 217 | 4.3 | 12.2 | 0.00 | 0.00 | 0.00 | 25 | 1013.3 |
| 20260906210957 | 81 | 218 | 4.3 | 12.2 | 0.00 | 0.00 | 0.00 | 25 | 1013.3 |
| 20260906210451 | 82 | 219 | 5.2 | 12.2 | 0.00 | 0.00 | 0.00 | 24 | 1013.3 |
| 20260906205945 | 81 | 191 | 4.3 | 13.0 | 0.00 | 0.00 | 0.00 | 23 | 1013.3 |
| 20260906205439 | 81 | 183 | 7.8 | 12.2 | 0.00 | 0.00 | 0.00 | 24 | 1013.3 |
| 20260906204933 | 82 | 185 | 4.3 | 13.0 | 0.00 | 0.00 | 0.00 | 24 | 1013.4 |
| 20260906204427 | 81 | 202 | 7.8 | 13.0 | 0.00 | 0.00 | 0.00 | 23 | 1013.6 |
| 20260906203921 | 81 | 190 | 7.0 | 13.0 | 0.00 | 0.00 | 0.00 | 24 | 1013.6 |
| 20260906203415 | 81 | 183 | 7.0 | 13.0 | 0.00 | 0.00 | 0.00 | 25 | 1013.6 |
| 20260906202909 | 80 | 191 | 4.3 | 13.0 | 0.00 | 0.00 | 0.00 | 24 | 1013.7 |
| 20260906202403 | 81 | 211 | 7.0 | 13.0 | 0.00 | 0.00 | 0.00 | 22 | 1013.7 |
| 20260906201857 | 81 | 220 | 6.1 | 10.4 | 0.00 | 0.00 | 0.00 | 21 | 1013.8 |
| 20260906201351 | 81 | 215 | 5.2 | 0.0 | 0.00 | 0.00 | 0.00 | 21 | 1013.9 |
| 20260906200845 | 81 | 185 | 5.2 | 9.6 | 0.00 | 0.00 | 0.00 | 22 | 1014.1 |
| 20260906200339 | 80 | 207 | 4.3 | 9.6 | 0.00 | 0.00 | 0.00 | 23 | 1014.2 |
| 20260906195833 | 80 | 224 | 4.3 | 10.4 | 0.00 | 0.00 | 0.00 | 22 | 1014.2 |
| 20260906195327 | 79 | 212 | 5.2 | 10.4 | 0.00 | 0.00 | 0.00 | 24 | 1014.3 |
| 20260906194821 | 79 | 207 | 5.2 | 9.6 | 0.00 | 0.00 | 0.00 | 22 | 1014.5 |
| 20260906194315 | 79 | 224 | 2.6 | 14.8 | 0.00 | 0.00 | 0.00 | 24 | 1014.6 |
| 20260906193809 | 79 | 210 | 5.2 | 14.8 | 0.00 | 0.00 | 0.00 | 23 | 1014.6 |
| 20260906193303 | 79 | 221 | 5.2 | 12.2 | 0.00 | 0.00 | 0.00 | 23 | 1014.3 |
| 20260906192757 | 79 | 203 | 4.3 | 13.0 | 0.00 | 0.00 | 0.00 | 23 | 1014.3 |
| 20260906192251 | 79 | 213 | 7.8 | 13.0 | 0.00 | 0.00 | 0.00 | 22 | 1014.3 |
| 20260906191745 | 80 | 217 | 7.0 | 13.0 | 0.00 | 0.00 | 0.00 | 21 | 1014.2 |
| 20260906191239 | 81 | 223 | 5.2 | 13.0 | 0.00 | 0.00 | 0.00 | 22 | 1014.2 |
| 20260906190733 | 81 | 224 | 4.3 | 13.9 | 0.00 | 0.00 | 0.00 | 23 | 1014.3 |
| 20260906190227 | 81 | 213 | 7.8 | 15.6 | 0.00 | 0.00 | 0.00 | 23 | 1014.4 |
| 20260906185721 | 82 | 225 | 3.5 | 15.6 | 0.00 | 0.00 | 0.00 | 22 | 1014.4 |
| 20260906185215 | 81 | 204 | 5.2 | 13.9 | 0.00 | 0.00 | 0.00 | 31 | 1014.5 |
| 20260906184709 | 80 | 208 | 7.8 | 13.9 | 0.00 | 0.00 | 0.00 | 34 | 1014.5 |
| 20260906184203 | 80 | 224 | 5.2 | 13.9 | 0.00 | 0.00 | 0.00 | 100 | 1014.6 |
| 20260906183657 | 80 | 211 | 7.8 | 13.9 | 0.00 | 0.00 | 0.00 | 98 | 1014.7 |
| 20260906183151 | 80 | 218 | 5.2 | 10.4 | 0.00 | 0.00 | 0.00 | 100 | 1014.8 |
| 20260906182645 | 80 | 206 | 7.0 | 11.3 | 0.00 | 0.00 | 0.00 | 93 | 1014.8 |
| 20260906182139 | 80 | 202 | 8.7 | 13.9 | 0.00 | 0.00 | 0.00 | 82 | 1014.8 |
| 20260906181633 | 80 | 207 | 5.2 | 13.9 | 0.00 | 0.00 | 0.00 | 82 | 1014.9 |
| 20260906181127 | 80 | 218 | 5.2 | 13.0 | 0.00 | 0.00 | 0.00 | 100 | 1015.0 |
| 20260906180621 | 79 | 205 | 7.0 | 13.0 | 0.00 | 0.00 | 0.00 | 80 | 1015.1 |
| 20260906180115 | 80 | 224 | 4.3 | 17.4 | 0.00 | 0.00 | 0.00 | 95 | 1015.2 |
| 20260906175609 | 79 | 210 | 7.8 | 12.2 | 0.00 | 0.00 | 0.00 | 98 | 1015.3 |
| 20260906175103 | 79 | 212 | 6.1 | 12.2 | 0.00 | 0.00 | 0.00 | 100 | 1015.3 |
| 20260906174557 | 79 | 231 | 5.2 | 13.9 | 0.00 | 0.00 | 0.00 | 79 | 1015.6 |
| 20260906174051 | 79 | 215 | 7.0 | 13.9 | 0.00 | 0.00 | 0.00 | 66 | 1015.6 |
| 20260906173545 | 79 | 207 | 7.8 | 12.2 | 0.00 | 0.00 | 0.00 | 94 | 1015.6 |
| 20260906173039 | 79 | 211 | 7.0 | 13.9 | 0.00 | 0.00 | 0.00 | 68 | 1015.7 |
| 20260906172533 | 78 | 220 | 6.1 | 16.5 | 0.00 | 0.00 | 0.00 | 60 | 1015.8 |
| 20260906172027 | 78 | 211 | 7.8 | 16.5 | 0.00 | 0.00 | 0.00 | 99 | 1015.7 |
| 20260906171521 | 78 | 209 | 9.6 | 18.2 | 0.00 | 0.00 | 0.00 | 48 | 1015.8 |
| 20260906171015 | 78 | 213 | 9.6 | 18.2 | 0.00 | 0.00 | 0.00 | 74 | 1015.8 |
| 20260906170509 | 78 | 215 | 8.7 | 15.6 | 0.00 | 0.00 | 0.00 | 82 | 1015.8 |
| 20260906170003 | 78 | 203 | 7.8 | 15.6 | 0.00 | 0.00 | 0.00 | 87 | 1015.9 |
| 20260906165457 | 78 | 201 | 9.6 | 16.5 | 0.00 | 0.00 | 0.00 | 67 | 1015.9 |
| 20260906164951 | 78 | 200 | 9.6 | 16.5 | 0.00 | 0.00 | 0.00 | 56 | 1015.9 |
| 20260906164445 | 78 | 199 | 7.8 | 13.9 | 0.00 | 0.00 | 0.00 | 23 | 1015.8 |
| 20260906163939 | 78 | 211 | 6.1 | 13.9 | 0.00 | 0.00 | 0.00 | 22 | 1015.9 |
| 20260906163433 | 77 | 213 | 5.2 | 13.0 | 0.00 | 0.00 | 0.00 | 24 | 1016.0 |
| 20260906162927 | 77 | 213 | 7.0 | 13.9 | 0.00 | 0.00 | 0.00 | 24 | 1016.0 |
| 20260906162421 | 77 | 216 | 7.8 | 13.9 | 0.00 | 0.00 | 0.00 | 24 | 1016.0 |
| 20260906161915 | 77 | 216 | 5.2 | 13.0 | 0.00 | 0.00 | 0.00 | 26 | 1016.1 |
| 20260906161409 | 76 | 228 | 5.2 | 11.3 | 0.00 | 0.00 | 0.00 | 27 | 1016.0 |
| 20260906160903 | 76 | 208 | 7.0 | 11.3 | 0.00 | 0.00 | 0.00 | 25 | 1016.1 |
| 20260906160357 | 77 | 192 | 5.2 | 8.7 | 0.00 | 0.00 | 0.00 | 26 | 1016.1 |
| 20260906155851 | 75 | 167 | 3.5 | 0.0 | 0.00 | 0.00 | 0.00 | 32 | 1016.2 |
| 20260906155345 | 76 | 100 | 0.9 | 0.0 | 0.00 | 0.00 | 0.00 | 26 | 1016.1 |
| 20260906154839 | 74 | 123 | 0.9 | 0.0 | 0.00 | 0.00 | 0.00 | 33 | 1016.3 |
| 20260906154333 | 75 | 80 | 1.7 | 0.0 | 0.00 | 0.00 | 0.00 | 26 | 1016.2 |
| 20260906153827 | 74 | 92 | 2.6 | 0.0 | 0.00 | 0.00 | 0.00 | 27 | 1016.3 |
| 20260906153321 | 73 | 146 | 0.0 | 0.0 | 0.00 | 0.00 | 0.00 | 28 | 1016.5 |
| 20260906152815 | 72 | 174 | 0.0 | 0.0 | 0.00 | 0.00 | 0.00 | 27 | 1016.5 |
| 20260906152309 | 72 | 145 | 1.7 | 0.0 | 0.00 | 0.00 | 0.00 | 100 | 1016.6 |
| 20260906151803 | 71 | 156 | 0.9 | 0.0 | 0.00 | 0.00 | 0.00 | 100 | 1016.6 |
| 20260906151257 | 70 | 185 | 1.7 | 0.0 | 0.00 | 0.00 | 0.00 | 43 | 1016.6 |
| 20260906150751 | 69 | 182 | 1.7 | 0.0 | 0.00 | 0.00 | 0.00 | 34 | 1016.6 |
| 20260906150245 | 68 | 182 | 2.6 | 0.0 | 0.00 | 0.00 | 0.00 | 36 | 1016.7 |
| 20260906145739 | 68 | 195 | 5.2 | 0.0 | 0.00 | 0.00 | 0.00 | 33 | 1016.7 |
| 20260906145233 | 68 | 178 | 4.3 | 0.0 | 0.00 | 0.00 | 0.00 | 30 | 1016.6 |
| 20260906144727 | 67 | 179 | 3.5 | 0.0 | 0.00 | 0.00 | 0.00 | 33 | 1016.7 |
| 20260906144221 | 66 | 198 | 1.7 | 0.0 | 0.00 | 0.00 | 0.00 | 35 | 1016.7 |
| 20260906143715 | 66 | 213 | 2.6 | 0.0 | 0.00 | 0.00 | 0.00 | 31 | 1016.8 |
| 20260906143209 | 65 | 275 | 1.7 | 0.0 | 0.00 | 0.00 | 0.00 | 35 | 1016.8 |
| 20260906142703 | 64 | 278 | 0.9 | 0.0 | 0.00 | 0.00 | 0.00 | 37 | 1016.8 |
| 20260906142157 | 63 | 317 | 0.9 | 0.0 | 0.00 | 0.00 | 0.00 | 38 | 1016.8 |
| 20260906141651 | 66 | 226 | 0.0 | 0.0 | 0.00 | 0.00 | 0.00 | 30 | 1016.8 |
| 20260906141145 | 64 | 144 | 0.9 | 0.0 | 0.00 | 0.00 | 0.00 | 100 | 1016.9 |
| 20260906140639 | 64 | 170 | 0.0 | 0.0 | 0.00 | 0.00 | 0.00 | 100 | 1017.0 |
| 20260906140133 | 63 | 170 | 1.7 | 0.0 | 0.00 | 0.00 | 0.00 | 36 | 1017.0 |
| 20260906135627 | 62 | 170 | 2.6 | 0.0 | 0.00 | 0.00 | 0.00 | 34 | 1017.0 |
| 20260906135121 | 63 | 145 | 2.6 | 0.0 | 0.00 | 0.00 | 0.00 | 100 | 1017.0 |
| 20260906134615 | 62 | 171 | 4.3 | 0.0 | 0.00 | 0.00 | 0.00 | 31 | 1017.0 |
| 20260906134109 | 61 | 174 | 2.6 | 0.0 | 0.00 | 0.00 | 0.00 | 34 | 1017.0 |
| 20260906133603 | 60 | 194 | 3.5 | 0.0 | 0.00 | 0.00 | 0.00 | 35 | 1017.0 |
| 20260906133057 | 61 | 227 | 0.9 | 0.0 | 0.00 | 0.00 | 0.00 | 33 | 1017.0 |
| 20260906132551 | 61 | 173 | 1.7 | 0.0 | 0.00 | 0.00 | 0.00 | 32 | 1017.0 |
| 20260906132045 | 62 | 153 | 3.5 | 0.0 | 0.00 | 0.00 | 0.00 | 30 | 1016.9 |
| 20260906131539 | 61 | 150 | 3.5 | 0.0 | 0.00 | 0.00 | 0.00 | 31 | 1016.8 |
| 20260906131033 | 61 | 164 | 3.5 | 0.0 | 0.00 | 0.00 | 0.00 | 30 | 1016.7 |
| 20260906130527 | 62 | 160 | 3.5 | 0.0 | 0.00 | 0.00 | 0.00 | 30 | 1016.7 |
| 20260906130021 | 61 | 163 | 4.3 | 0.0 | 0.00 | 0.00 | 0.00 | 30 | 1016.7 |
| 20260906125515 | 61 | 155 | 2.6 | 0.0 | 0.00 | 0.00 | 0.00 | 30 | 1016.8 |
| 20260906125009 | 61 | 166 | 5.2 | 0.0 | 0.00 | 0.00 | 0.00 | 31 | 1016.8 |
| 20260906124503 | 61 | 162 | 2.6 | 0.0 | 0.00 | 0.00 | 0.00 | 30 | 1016.8 |
| 20260906123957 | 61 | 166 | 4.3 | 0.0 | 0.00 | 0.00 | 0.00 | 30 | 1016.7 |
| 20260906123451 | 62 | 159 | 3.5 | 0.0 | 0.00 | 0.00 | 0.00 | 29 | 1016.7 |
| 20260906122945 | 62 | 150 | 3.5 | 0.0 | 0.00 | 0.00 | 0.00 | 30 | 1016.7 |
| 20260906122439 | 62 | 167 | 5.2 | 0.0 | 0.00 | 0.00 | 0.00 | 29 | 1016.6 |
| 20260906121933 | 63 | 154 | 4.3 | 0.0 | 0.00 | 0.00 | 0.00 | 27 | 1016.6 |
| 20260906121427 | 63 | 153 | 3.5 | 0.0 | 0.00 | 0.00 | 0.00 | 27 | 1016.6 |
| 20260906120922 | 63 | 155 | 3.5 | 0.0 | 0.00 | 0.00 | 0.00 | 28 | 1016.6 |
| 20260906120415 | 63 | 166 | 4.3 | 0.0 | 0.00 | 0.00 | 0.00 | 28 | 1016.6 |
| 20260906115909 | 63 | 154 | 4.3 | 0.0 | 0.00 | 0.00 | 0.00 | 27 | 1016.6 |
| 20260906115403 | 63 | 147 | 4.3 | 0.0 | 0.00 | 0.00 | 0.00 | 26 | 1016.6 |
| 20260906114857 | 63 | 153 | 3.5 | 0.0 | 0.00 | 0.00 | 0.00 | 26 | 1016.6 |
| 20260906114351 | 64 | 145 | 5.2 | 0.0 | 0.00 | 0.00 | 0.00 | 25 | 1016.6 |
| 20260906113845 | 64 | 146 | 4.3 | 11.3 | 0.00 | 0.00 | 0.00 | 26 | 1016.6 |
| 20260906113339 | 63 | 147 | 6.1 | 11.3 | 0.00 | 0.00 | 0.00 | 26 | 1016.6 |
| 20260906112833 | 63 | 151 | 4.3 | 0.0 | 0.00 | 0.00 | 0.00 | 27 | 1016.7 |
| 20260906112327 | 63 | 168 | 4.3 | 0.0 | 0.00 | 0.00 | 0.00 | 28 | 1016.7 |
| 20260906111821 | 62 | 167 | 4.3 | 0.0 | 0.00 | 0.00 | 0.00 | 29 | 1016.7 |
| 20260906111315 | 61 | 173 | 3.5 | 0.0 | 0.00 | 0.00 | 0.00 | 31 | 1016.7 |
| 20260906110809 | 62 | 195 | 5.2 | 0.0 | 0.00 | 0.00 | 0.00 | 29 | 1016.7 |
| 20260906110303 | 61 | 198 | 5.2 | 0.0 | 0.00 | 0.00 | 0.00 | 30 | 1016.7 |
| 20260906105757 | 61 | 201 | 3.5 | 0.0 | 0.00 | 0.00 | 0.00 | 32 | 1016.7 |
| 20260906105251 | 61 | 205 | 5.2 | 0.0 | 0.00 | 0.00 | 0.00 | 32 | 1016.6 |
| 20260906104745 | 62 | 212 | 3.5 | 0.0 | 0.00 | 0.00 | 0.00 | 30 | 1016.6 |
| 20260906104239 | 64 | 193 | 2.6 | 0.0 | 0.00 | 0.00 | 0.00 | 28 | 1016.5 |
| 20260906103733 | 65 | 153 | 3.5 | 0.0 | 0.00 | 0.00 | 0.00 | 25 | 1016.5 |
| 20260906103227 | 65 | 145 | 3.5 | 0.0 | 0.00 | 0.00 | 0.00 | 24 | 1016.5 |
| 20260906102721 | 65 | 142 | 3.5 | 0.0 | 0.00 | 0.00 | 0.00 | 26 | 1016.5 |
| 20260906102215 | 65 | 141 | 3.5 | 0.0 | 0.00 | 0.00 | 0.00 | 25 | 1016.4 |
| 20260906101709 | 65 | 142 | 2.6 | 0.0 | 0.00 | 0.00 | 0.00 | 25 | 1016.4 |
| 20260906101203 | 66 | 137 | 3.5 | 0.0 | 0.00 | 0.00 | 0.00 | 24 | 1016.4 |
| 20260906100657 | 66 | 134 | 3.5 | 0.0 | 0.00 | 0.00 | 0.00 | 25 | 1016.3 |
| 20260906100151 | 66 | 141 | 2.6 | 0.0 | 0.00 | 0.00 | 0.00 | 25 | 1016.3 |
| 20260906095645 | 66 | 147 | 4.3 | 0.0 | 0.00 | 0.00 | 0.00 | 24 | 1016.3 |
| 20260906095139 | 66 | 152 | 3.5 | 0.0 | 0.00 | 0.00 | 0.00 | 24 | 1016.2 |
| 20260906094633 | 66 | 140 | 5.2 | 10.4 | 0.00 | 0.00 | 0.00 | 26 | 1016.2 |
| 20260906094127 | 65 | 150 | 4.3 | 10.4 | 0.00 | 0.00 | 0.00 | 25 | 1016.1 |
| 20260906093621 | 64 | 159 | 2.6 | 0.0 | 0.00 | 0.00 | 0.00 | 27 | 1016.1 |
| 20260906093115 | 64 | 168 | 3.5 | 0.0 | 0.00 | 0.00 | 0.00 | 26 | 1016.0 |
| 20260906092609 | 64 | 175 | 4.3 | 0.0 | 0.00 | 0.00 | 0.00 | 26 | 1016.0 |
| 20260906092103 | 65 | 158 | 3.5 | 9.6 | 0.00 | 0.00 | 0.00 | 25 | 1015.9 |
| 20260906091557 | 65 | 152 | 4.3 | 9.6 | 0.00 | 0.00 | 0.00 | 24 | 1016.0 |
| 20260906091051 | 65 | 152 | 4.3 | 0.0 | 0.00 | 0.00 | 0.00 | 25 | 1015.9 |
| 20260906090545 | 64 | 158 | 3.5 | 11.3 | 0.00 | 0.00 | 0.00 | 26 | 1015.9 |
| 20260906090039 | 65 | 156 | 4.3 | 11.3 | 0.00 | 0.00 | 0.00 | 25 | 1015.8 |
| 20260906085533 | 65 | 153 | 3.5 | 12.2 | 0.00 | 0.00 | 0.00 | 25 | 1015.8 |
| 20260906085027 | 65 | 154 | 2.6 | 12.2 | 0.00 | 0.00 | 0.00 | 25 | 1015.7 |
| 20260906084521 | 65 | 149 | 6.1 | 0.0 | 0.00 | 0.00 | 0.00 | 24 | 1015.7 |
| 20260906084015 | 65 | 155 | 3.5 | 0.0 | 0.00 | 0.00 | 0.00 | 26 | 1015.7 |
| 20260906083509 | 65 | 155 | 4.3 | 11.3 | 0.00 | 0.00 | 0.00 | 26 | 1015.7 |
| 20260906083003 | 66 | 148 | 5.2 | 11.3 | 0.00 | 0.00 | 0.00 | 24 | 1015.7 |
| 20260906082457 | 66 | 154 | 5.2 | 9.6 | 0.00 | 0.00 | 0.00 | 25 | 1015.7 |
| 20260906081951 | 66 | 156 | 4.3 | 11.3 | 0.00 | 0.00 | 0.00 | 24 | 1015.7 |
| 20260906081445 | 67 | 144 | 5.2 | 11.3 | 0.00 | 0.00 | 0.00 | 22 | 1015.7 |
| 20260906080939 | 68 | 143 | 6.1 | 0.0 | 0.00 | 0.00 | 0.00 | 22 | 1015.7 |
| 20260906080433 | 68 | 142 | 5.2 | 0.0 | 0.00 | 0.00 | 0.00 | 22 | 1015.7 |
| 20260906075927 | 68 | 148 | 5.2 | 0.0 | 0.00 | 0.00 | 0.00 | 22 | 1015.7 |
| 20260906075421 | 67 | 144 | 4.3 | 0.0 | 0.00 | 0.00 | 0.00 | 23 | 1015.8 |
| 20260906074915 | 67 | 151 | 4.3 | 0.0 | 0.00 | 0.00 | 0.00 | 23 | 1015.8 |
| 20260906074409 | 68 | 143 | 5.2 | 0.0 | 0.00 | 0.00 | 0.00 | 21 | 1015.8 |
| 20260906073903 | 67 | 146 | 4.3 | 11.3 | 0.00 | 0.00 | 0.00 | 23 | 1015.7 |
| 20260906073357 | 68 | 145 | 5.2 | 11.3 | 0.00 | 0.00 | 0.00 | 21 | 1015.7 |
| 20260906072851 | 68 | 143 | 5.2 | 10.4 | 0.00 | 0.00 | 0.00 | 22 | 1015.8 |
| 20260906072345 | 67 | 163 | 3.5 | 11.3 | 0.00 | 0.00 | 0.00 | 24 | 1015.7 |
| 20260906071839 | 68 | 140 | 7.0 | 11.3 | 0.00 | 0.00 | 0.00 | 21 | 1015.7 |
| 20260906071333 | 67 | 148 | 5.2 | 0.0 | 0.00 | 0.00 | 0.00 | 24 | 1015.7 |
| 20260906070827 | 67 | 152 | 2.6 | 10.4 | 0.00 | 0.00 | 0.00 | 25 | 1015.7 |
| 20260906070321 | 68 | 146 | 6.1 | 10.4 | 0.00 | 0.00 | 0.00 | 22 | 1015.7 |
| 20260906065815 | 68 | 157 | 4.3 | 11.3 | 0.00 | 0.00 | 0.00 | 22 | 1015.8 |
| 20260906065309 | 68 | 148 | 5.2 | 11.3 | 0.00 | 0.00 | 0.00 | 22 | 1015.7 |
| 20260906064803 | 68 | 149 | 4.3 | 10.4 | 0.00 | 0.00 | 0.00 | 23 | 1015.7 |
| 20260906064257 | 67 | 170 | 4.3 | 0.0 | 0.00 | 0.00 | 0.00 | 24 | 1015.7 |
| 20260906063751 | 66 | 158 | 2.6 | 0.0 | 0.00 | 0.00 | 0.00 | 26 | 1015.7 |
| 20260906063245 | 65 | 177 | 3.5 | 0.0 | 0.00 | 0.00 | 0.00 | 28 | 1015.7 |
| 20260906062739 | 65 | 181 | 3.5 | 0.0 | 0.00 | 0.00 | 0.00 | 29 | 1015.8 |
| 20260906062233 | 65 | 170 | 5.2 | 0.0 | 0.00 | 0.00 | 0.00 | 100 | 1015.7 |
| 20260906061727 | 66 | 170 | 5.2 | 0.0 | 0.00 | 0.00 | 0.00 | 78 | |
| 20260906061221 | 66 | 172 | 6.1 | 0.0 | 0.00 | 0.00 | 0.00 | 85 | 1015.8 |
| 20260906060715 | 65 | 173 | 5.2 | 11.3 | 0.00 | 0.00 | 0.00 | 75 | 1015.8 |
| 20260906060209 | 66 | 182 | 6.1 | 0.0 | 0.00 | 0.00 | 0.00 | 100 | 1015.9 |
| 20260906055703 | 64 | 189 | 7.0 | 0.0 | 0.00 | 0.00 | 0.00 | 100 | 1015.9 |
| 20260906055157 | 62 | 174 | 3.5 | 0.0 | 0.00 | 0.00 | 0.00 | 95 | 1015.9 |
| 20260906054651 | 63 | 175 | 4.3 | 0.0 | 0.00 | 0.00 | 0.00 | 100 | 1015.9 |
| 20260906054145 | 64 | 186 | 5.2 | 0.0 | 0.00 | 0.00 | 0.00 | 100 | 1015.9 |
| 20260906053639 | 63 | 188 | 2.6 | 0.0 | 0.00 | 0.00 | 0.00 | 100 | 1015.9 |
| 20260906053133 | 64 | 173 | 1.7 | 0.0 | 0.00 | 0.00 | 0.00 | 69 | 1015.8 |
| 20260906052627 | 65 | 182 | 1.7 | 0.0 | 0.00 | 0.00 | 0.00 | 85 | 1015.8 |
| 20260906052121 | 65 | 217 | 3.5 | 0.0 | 0.00 | 0.00 | 0.00 | 100 | 1015.8 |
| 20260906051615 | 66 | 204 | 2.6 | 0.0 | 0.00 | 0.00 | 0.00 | 100 | 1015.7 |
| 20260906051109 | 65 | 230 | 1.7 | 0.0 | 0.00 | 0.00 | 0.00 | 100 | 1015.7 |
| 20260906050603 | 64 | 233 | 2.6 | 0.0 | 0.00 | 0.00 | 0.00 | 100 | 1015.8 |
| 20260906050057 | 65 | 197 | 1.7 | 0.0 | 0.00 | 0.00 | 0.00 | 100 | 1015.6 |
| 20260906045551 | 65 | 215 | 4.3 | 0.0 | 0.00 | 0.00 | 0.00 | 95 | 1015.7 |
| 20260906045045 | 65 | 178 | 3.5 | 0.0 | 0.00 | 0.00 | 0.00 | 100 | 1015.6 |
| 20260906044539 | 67 | 170 | 4.3 | 0.0 | 0.00 | 0.00 | 0.00 | 60 | 1015.6 |
| 20260906044033 | 65 | 173 | 3.5 | 0.0 | 0.00 | 0.00 | 0.00 | 32 | 1015.6 |
| 20260906043527 | 65 | 181 | 3.5 | 0.0 | 0.00 | 0.00 | 0.00 | 30 | 1015.6 |
| 20260906043021 | 67 | 166 | 3.5 | 0.0 | 0.00 | 0.00 | 0.00 | 27 | 1015.5 |
| 20260906042515 | 66 | 177 | 5.2 | 0.0 | 0.00 | 0.00 | 0.00 | 28 | 1015.5 |
| 20260906042009 | 69 | 171 | 6.1 | 12.2 | 0.00 | 0.00 | 0.00 | 24 | 1015.5 |
| 20260906041503 | 70 | 168 | 6.1 | 12.2 | 0.00 | 0.00 | 0.00 | 22 | 1015.5 |
| 20260906040957 | 69 | 167 | 5.2 | 0.0 | 0.00 | 0.00 | 0.00 | 23 | 1015.4 |
| 20260906040451 | 69 | 167 | 5.2 | 0.0 | 0.00 | 0.00 | 0.00 | 24 | 1015.5 |
| 20260906035945 | 71 | 170 | 6.1 | 10.4 | 0.00 | 0.00 | 0.00 | 22 | 1015.4 |
| 20260906035439 | 71 | 161 | 5.2 | 10.4 | 0.00 | 0.00 | 0.00 | 23 | 1015.5 |
| 20260906034933 | 67 | 174 | 3.5 | 0.0 | 0.00 | 0.00 | 0.00 | 29 | 1015.4 |
| 20260906034427 | 68 | 169 | 5.2 | 0.0 | 0.00 | 0.00 | 0.00 | 28 | 1015.4 |
| 20260906033921 | 68 | 169 | 5.2 | 11.3 | 0.00 | 0.00 | 0.00 | 28 | 1015.4 |
| 20260906033415 | 68 | 167 | 4.3 | 0.0 | 0.00 | 0.00 | 0.00 | 27 | 1015.3 |
| 20260906032909 | 66 | 163 | 2.6 | 0.0 | 0.00 | 0.00 | 0.00 | 33 | 1015.3 |
| 20260906032403 | 65 | 170 | 3.5 | 0.0 | 0.00 | 0.00 | 0.00 | 35 | 1015.3 |
| 20260906031857 | 65 | 180 | 4.3 | 0.0 | 0.00 | 0.00 | 0.00 | 36 | 1015.3 |
| 20260906031351 | 66 | 195 | 4.3 | 0.0 | 0.00 | 0.00 | 0.00 | 35 | 1015.3 |
| 20260906030845 | 64 | 191 | 4.3 | 0.0 | 0.00 | 0.00 | 0.00 | 42 | 1015.3 |
| 20260906030339 | 66 | 197 | 3.5 | 0.0 | 0.00 | 0.00 | 0.00 | 39 | 1015.2 |
| 20260906025833 | 65 | 198 | 3.5 | 0.0 | 0.00 | 0.00 | 0.00 | 100 | 1015.2 |
| 20260906025327 | 65 | 200 | 2.6 | 0.0 | 0.00 | 0.00 | 0.00 | 100 | 1015.1 |
| 20260906024821 | 65 | 194 | 0.0 | 0.0 | 0.00 | 0.00 | 0.00 | 30 | 1015.1 |
| 20260906024315 | 65 | 199 | 3.5 | 0.0 | 0.00 | 0.00 | 0.00 | 42 | 1014.9 |
| 20260906023809 | 66 | 173 | 0.0 | 0.0 | 0.00 | 0.00 | 0.00 | 43 | 1014.8 |
| 20260906023303 | 66 | 216 | 2.6 | 0.0 | 0.00 | 0.00 | 0.00 | 43 | 1014.7 |
| 20260906022757 | 68 | 178 | 1.7 | 0.0 | 0.00 | 0.00 | 0.00 | 41 | 1014.6 |
| 20260906022251 | 68 | 104 | 0.0 | 0.0 | 0.00 | 0.00 | 0.00 | 39 | 1014.5 |
| 20260906021745 | 68 | 174 | 0.0 | 0.0 | 0.00 | 0.00 | 0.00 | 41 | 1014.5 |
| 20260906021239 | 69 | 230 | 1.7 | 0.0 | 0.00 | 0.00 | 0.00 | 37 | 1014.5 |
| 20260906020733 | 73 | 178 | 0.9 | 0.0 | 0.00 | 0.00 | 0.00 | 31 | 1014.5 |
| 20260906020227 | 76 | 85 | 0.9 | 0.0 | 0.00 | 0.00 | 0.00 | 23 | 1014.4 |
| 20260906015721 | 77 | 62 | 0.9 | 0.0 | 0.00 | 0.00 | 0.00 | 22 | 1014.4 |
| 20260906015215 | 76 | 127 | 0.0 | 0.0 | 0.00 | 0.00 | 0.00 | 22 | 1014.4 |
| 20260906014709 | 78 | 71 | 0.9 | 0.0 | 0.00 | 0.00 | 0.00 | 22 | 1014.4 |
| 20260906014203 | 79 | 63 | 0.9 | 0.0 | 0.00 | 0.00 | 0.00 | 22 | 1014.4 |
| 20260906013657 | 80 | 77 | 0.0 | 0.0 | 0.00 | 0.00 | 0.00 | 20 | 1014.5 |
| 20260906013151 | 80 | 50 | 0.9 | 0.0 | 0.00 | 0.00 | 0.00 | 18 | 1014.5 |
| 20260906012645 | 81 | 66 | 0.9 | 0.0 | 0.00 | 0.00 | 0.00 | 16 | 1014.5 |
| 20260906012139 | 81 | 76 | 0.0 | 0.0 | 0.00 | 0.00 | 0.00 | 16 | 1014.5 |
| 20260906011633 | 81 | 154 | 0.0 | 0.0 | 0.00 | 0.00 | 0.00 | 17 | 1014.4 |
| 20260906011127 | 81 | 157 | 0.0 | 0.0 | 0.00 | 0.00 | 0.00 | 18 | 1014.5 |
| 20260906010621 | 82 | 150 | 0.0 | 0.0 | 0.00 | 0.00 | 0.00 | 17 | 1014.5 |
| 20260906010115 | 83 | 190 | 0.0 | 0.0 | 0.00 | 0.00 | 0.00 | 18 | 1014.5 |
| 20260906005609 | 83 | 206 | 0.9 | 0.0 | 0.00 | 0.00 | 0.00 | 16 | 1014.4 |
| 20260906005103 | 83 | 199 | 0.0 | 0.0 | 0.00 | 0.00 | 0.00 | 16 | 1014.4 |
| 20260906004557 | 83 | 214 | 0.9 | 0.0 | 0.00 | 0.00 | 0.00 | 18 | 1014.3 |
| 20260906004051 | 82 | 204 | 2.6 | 0.0 | 0.00 | 0.00 | 0.00 | 17 | 1014.3 |
| 20260906003545 | 83 | 218 | 0.9 | 0.0 | 0.00 | 0.00 | 0.00 | 16 | 1014.2 |
| 20260906003039 | 83 | 217 | 2.6 | 0.0 | 0.00 | 0.00 | 0.00 | 17 | 1014.1 |
| 20260906002533 | 83 | 214 | 2.6 | 0.0 | 0.00 | 0.00 | 0.00 | 17 | 1014.1 |
| 20260906002027 | 83 | 219 | 1.7 | 0.0 | 0.00 | 0.00 | 0.00 | 16 | 1014.1 |
| 20260906001521 | 83 | 223 | 1.7 | 0.0 | 0.00 | 0.00 | 0.00 | 17 | 1014.0 |
| 20260906001015 | 84 | 219 | 1.7 | 0.0 | 0.00 | 0.00 | 0.00 | 15 | 1013.9 |
| 20260906000509 | 84 | 221 | 3.5 | 0.0 | 0.00 | 0.00 | 0.00 | 16 | 1014.0 |
| 20260906000003 | 84 | 224 | 1.7 | 0.0 | 0.00 | 0.00 | 0.00 | 16 | 1014.0 |
| 20260905235457 | 84 | 210 | 1.7 | 0.0 | 0.00 | 0.00 | 0.00 | 17 | 1014.0 |
| 20260905234951 | 84 | 226 | 1.7 | 0.0 | 0.00 | 0.00 | 0.00 | 16 | 1014.0 |